,,,PA_Meas_PMT16A,,PR_Meas_QMR101_102,,RH_Meas_QMH101,,SR_Meas_QMS101,,TA_Meas_QMH101,,GenWind,,GenWind,
date,time,status,PA,status,PR,status,RH,status,SR,status,TA,status,DirAvg,status,SpdAvg,
2009-02-14, 00:00:04,VALID,1004.79,VALID,0,VALID,88.6171,VALID,0,VALID,24.2468,VALID,29,VALID,0.415625,
2009-02-14, 00:01:04,VALID,1004.79,VALID,0,VALID,89.1664,VALID,0,VALID,24.2468,VALID,29,VALID,0.215234,
2009-02-14, 00:02:04,VALID,1004.77,VALID,0,VALID,89.0977,VALID,0,VALID,24.2486,VALID,29,VALID,0.229297,
2009-02-14, 00:03:04,VALID,1004.8,VALID,0,VALID,89.3952,VALID,0,VALID,24.2291,VALID,29,VALID,0.207031,
2009-02-14, 00:04:04,VALID,1004.81,VALID,0,VALID,89.2045,VALID,0,VALID,24.2078,VALID,29,VALID,0.239453,
2009-02-14, 00:05:04,VALID,1004.8,VALID,0,VALID,88.6094,VALID,0,VALID,24.1689,VALID,29,VALID,0.428125,
2009-02-14, 00:06:04,VALID,1004.83,VALID,0,VALID,88.8154,VALID,0,VALID,24.1707,VALID,12,VALID,0.768359,
2009-02-14, 00:07:04,VALID,1004.82,VALID,0,VALID,88.8383,VALID,0,VALID,24.1689,VALID,11,VALID,0.715234,
2009-02-14, 00:08:04,VALID,1004.84,VALID,0,VALID,88.907,VALID,0.100563,VALID,24.1902,VALID,11,VALID,0.404297,
2009-02-14, 00:09:04,VALID,1004.83,VALID,0,VALID,88.7849,VALID,0,VALID,24.2097,VALID,8,VALID,0.286328,
2009-02-14, 00:10:04,VALID,1004.82,VALID,0,VALID,88.3195,VALID,0.100563,VALID,24.1689,VALID,1,VALID,0.4625,
2009-02-14, 00:11:04,VALID,1004.78,VALID,0,VALID,87.7245,VALID,0.100563,VALID,24.2291,VALID,355,VALID,0.219141,
2009-02-14, 00:12:04,VALID,1004.79,VALID,0,VALID,87.3278,VALID,0.100563,VALID,24.2662,VALID,354,VALID,0.303906,
2009-02-14, 00:13:04,VALID,1004.74,VALID,0,VALID,86.42,VALID,0.100563,VALID,24.3246,VALID,354,VALID,0.457422,
2009-02-14, 00:14:04,VALID,1004.75,VALID,0,VALID,85.741,VALID,0.100563,VALID,24.422,VALID,354,VALID,0.437109,
2009-02-14, 00:15:04,VALID,1004.75,VALID,0,VALID,85.5121,VALID,0.100563,VALID,24.4804,VALID,347,VALID,0.406641,
2009-02-14, 00:16:04,VALID,1004.76,VALID,0,VALID,85.0468,VALID,0,VALID,24.5582,VALID,342,VALID,0.391797,
2009-02-14, 00:17:04,VALID,1004.75,VALID,0,VALID,84.467,VALID,0.100563,VALID,24.6361,VALID,329,VALID,0.509375,
2009-02-14, 00:18:04,VALID,1004.76,VALID,0,VALID,85.1688,VALID,0,VALID,24.6945,VALID,337,VALID,0.323828,
2009-02-14, 00:19:04,VALID,1004.75,VALID,0,VALID,84.9552,VALID,0.100563,VALID,24.7353,VALID,335,VALID,0.410156,
2009-02-14, 00:20:04,VALID,1004.75,VALID,0,VALID,84.1542,VALID,0,VALID,24.6945,VALID,339,VALID,0.644922,
2009-02-14, 00:21:04,VALID,1004.77,VALID,0,VALID,83.8795,VALID,0.100563,VALID,24.714,VALID,347,VALID,0.536719,
2009-02-14, 00:22:04,VALID,1004.79,VALID,0,VALID,83.6812,VALID,0.100563,VALID,24.7335,VALID,349,VALID,0.61875,
2009-02-14, 00:23:04,VALID,1004.79,VALID,0,VALID,83.7117,VALID,0.100563,VALID,24.7724,VALID,350,VALID,0.577344,
2009-02-14, 00:24:04,VALID,1004.77,VALID,0,VALID,83.4142,VALID,0,VALID,24.7724,VALID,329,VALID,0.616016,
2009-02-14, 00:25:04,VALID,1004.78,VALID,0,VALID,83.3684,VALID,0.100563,VALID,24.7724,VALID,339,VALID,0.441797,
2009-02-14, 00:26:04,VALID,1004.76,VALID,0,VALID,83.5439,VALID,0.100563,VALID,24.8113,VALID,347,VALID,0.271484,
2009-02-14, 00:27:04,VALID,1004.75,VALID,0,VALID,83.2006,VALID,0,VALID,24.8346,VALID,346,VALID,0.358594,
2009-02-14, 00:28:04,VALID,1004.7,VALID,0,VALID,82.6742,VALID,0.100563,VALID,24.8113,VALID,343,VALID,0.553516,
2009-02-14, 00:29:04,VALID,1004.71,VALID,0,VALID,82.1402,VALID,0.100563,VALID,24.8308,VALID,347,VALID,0.558594,
2009-02-14, 00:30:04,VALID,1004.71,VALID,0,VALID,81.7435,VALID,0,VALID,24.8716,VALID,347,VALID,0.647266,
2009-02-14, 00:31:04,VALID,1004.7,VALID,0,VALID,81.6595,VALID,0.100563,VALID,24.9087,VALID,350,VALID,0.583594,
2009-02-14, 00:32:04,VALID,1004.69,VALID,0,VALID,81.2247,VALID,0,VALID,24.9495,VALID,353,VALID,0.461328,
2009-02-14, 00:33:04,VALID,1004.68,VALID,0,VALID,81.2857,VALID,0.100563,VALID,24.9885,VALID,353,VALID,0.109766,
2009-02-14, 00:34:04,VALID,1004.68,VALID,0,VALID,81.1713,VALID,0.100563,VALID,24.9866,VALID,351,VALID,0.388281,
2009-02-14, 00:35:04,VALID,1004.7,VALID,0,VALID,80.561,VALID,0.100563,VALID,25.0274,VALID,356,VALID,0.446875,
2009-02-14, 00:36:04,VALID,1004.67,VALID,0,VALID,80.4313,VALID,0.100563,VALID,25.045,VALID,336,VALID,0.607813,
2009-02-14, 00:37:04,VALID,1004.67,VALID,0,VALID,80.6373,VALID,0,VALID,25.045,VALID,352,VALID,0.639453,
2009-02-14, 00:38:04,VALID,1004.69,VALID,0,VALID,80.2787,VALID,0.100563,VALID,25.045,VALID,352,VALID,0.733594,
2009-02-14, 00:39:04,VALID,1004.68,VALID,0,VALID,80.6983,VALID,0.100563,VALID,25.045,VALID,354,VALID,0.569531,
2009-02-14, 00:40:04,VALID,1004.71,VALID,0,VALID,81.4307,VALID,0.100563,VALID,25.0663,VALID,351,VALID,0.460938,
2009-02-14, 00:41:04,VALID,1004.66,VALID,0,VALID,81.3773,VALID,0,VALID,25.0274,VALID,351,VALID,0.452344,
2009-02-14, 00:42:04,VALID,1004.65,VALID,0,VALID,80.9501,VALID,0,VALID,24.9885,VALID,359,VALID,0.588281,
2009-02-14, 00:43:04,VALID,1004.64,VALID,0,VALID,80.6144,VALID,0,VALID,24.9904,VALID,359,VALID,0.50625,
2009-02-14, 00:44:04,VALID,1004.67,VALID,0,VALID,80.7975,VALID,0,VALID,24.9495,VALID,358,VALID,0.501172,
2009-02-14, 00:45:04,VALID,1004.65,VALID,0,VALID,80.9958,VALID,0,VALID,24.9495,VALID,347,VALID,0.607031,
2009-02-14, 00:46:04,VALID,1004.64,VALID,0,VALID,80.7746,VALID,0,VALID,24.93,VALID,336,VALID,0.432031,
2009-02-14, 00:47:04,VALID,1004.61,VALID,0,VALID,80.8814,VALID,0,VALID,24.9514,VALID,340,VALID,0.359375,
2009-02-14, 00:48:04,VALID,1004.62,VALID,0,VALID,80.828,VALID,0,VALID,24.9106,VALID,339,VALID,0.440234,
2009-02-14, 00:49:04,VALID,1004.6,VALID,0,VALID,80.4999,VALID,0,VALID,24.9125,VALID,339,VALID,0.285937,
2009-02-14, 00:50:04,VALID,1004.61,VALID,0,VALID,80.4008,VALID,0,VALID,24.8911,VALID,339,VALID,0.360156,
2009-02-14, 00:51:04,VALID,1004.61,VALID,0,VALID,79.7828,VALID,0,VALID,24.9125,VALID,354,VALID,0.442187,
2009-02-14, 00:52:04,VALID,1004.57,VALID,0,VALID,80.7898,VALID,0,VALID,24.9087,VALID,354,VALID,0.19375,
2009-02-14, 00:53:04,VALID,1004.58,VALID,0,VALID,80.1414,VALID,0,VALID,24.93,VALID,354,VALID,0.0015625,
2009-02-14, 00:54:04,VALID,1004.58,VALID,0,VALID,80.6373,VALID,0,VALID,24.93,VALID,354,VALID,0.03125,
2009-02-14, 00:55:04,VALID,1004.54,VALID,0,VALID,80.2711,VALID,0,VALID,24.93,VALID,354,VALID,0.233203,
2009-02-14, 00:56:04,VALID,1004.53,VALID,0,VALID,80.5457,VALID,0.100563,VALID,24.9495,VALID,354,VALID,0.224609,
2009-02-14, 00:57:04,VALID,1004.55,VALID,0,VALID,80.149,VALID,0,VALID,24.9495,VALID,354,VALID,0.280078,
2009-02-14, 00:58:04,VALID,1004.53,VALID,0,VALID,80.6678,VALID,0.100563,VALID,24.9476,VALID,354,VALID,0.215625,
2009-02-14, 00:59:04,VALID,1004.55,VALID,0,VALID,81.0034,VALID,0.100563,VALID,24.9282,VALID,354,VALID,0.133984,
2009-02-14, 01:00:04,VALID,1004.54,VALID,0,VALID,80.8814,VALID,0,VALID,24.9087,VALID,354,VALID,0.255859,
2009-02-14, 01:01:04,VALID,1004.53,VALID,0,VALID,81.9494,VALID,0,VALID,24.9087,VALID,354,VALID,0.280859,
2009-02-14, 01:02:04,VALID,1004.51,VALID,0,VALID,82.3919,VALID,0.100563,VALID,24.8911,VALID,354,VALID,0.204688,
2009-02-14, 01:03:04,VALID,1004.5,VALID,0,VALID,81.8579,VALID,0,VALID,24.8522,VALID,354,VALID,0.0195313,
2009-02-14, 01:04:04,VALID,1004.48,VALID,0,VALID,82.9183,VALID,0,VALID,24.8327,VALID,354,VALID,0.149609,
2009-02-14, 01:05:04,VALID,1004.49,VALID,0,VALID,83.5134,VALID,0,VALID,24.8522,VALID,354,VALID,0,
2009-02-14, 01:06:04,VALID,1004.44,VALID,0,VALID,82.9336,VALID,0.100563,VALID,24.7937,VALID,354,VALID,0,
2009-02-14, 01:07:04,VALID,1004.4,VALID,0,VALID,82.6589,VALID,0.100563,VALID,24.7353,VALID,354,VALID,0,
2009-02-14, 01:08:04,VALID,1004.4,VALID,0,VALID,82.9107,VALID,0.100563,VALID,24.7159,VALID,354,VALID,0.224219,
2009-02-14, 01:09:04,VALID,1004.35,VALID,0,VALID,84.0321,VALID,0,VALID,24.6945,VALID,354,VALID,0.201953,
2009-02-14, 01:10:04,VALID,1004.35,VALID,0,VALID,84.5967,VALID,0.100563,VALID,24.6556,VALID,354,VALID,0.0597656,
2009-02-14, 01:11:04,VALID,1004.35,VALID,0,VALID,84.734,VALID,0,VALID,24.6398,VALID,354,VALID,0.1875,
2009-02-14, 01:12:04,VALID,1004.34,VALID,0,VALID,84.734,VALID,0,VALID,24.5814,VALID,354,VALID,0.221094,
2009-02-14, 01:13:04,VALID,1004.32,VALID,0,VALID,84.2457,VALID,0,VALID,24.562,VALID,354,VALID,0.325391,
2009-02-14, 01:14:04,VALID,1004.31,VALID,0,VALID,84.7492,VALID,0,VALID,24.5017,VALID,354,VALID,0,
2009-02-14, 01:15:04,VALID,1004.31,VALID,0,VALID,84.7797,VALID,0,VALID,24.4822,VALID,354,VALID,0.441797,
2009-02-14, 01:16:04,VALID,1004.29,VALID,0,VALID,85.0086,VALID,0,VALID,24.4628,VALID,354,VALID,0.369922,
2009-02-14, 01:17:04,VALID,1004.3,VALID,0,VALID,85.7562,VALID,0,VALID,24.4646,VALID,354,VALID,0.350781,
2009-02-14, 01:18:04,VALID,1004.29,VALID,0,VALID,86.3971,VALID,0,VALID,24.4238,VALID,354,VALID,0.382422,
2009-02-14, 01:19:04,VALID,1004.28,VALID,0,VALID,86.8395,VALID,0,VALID,24.4062,VALID,354,VALID,0.454297,
2009-02-14, 01:20:04,VALID,1004.27,VALID,0,VALID,87.2744,VALID,0,VALID,24.3673,VALID,354,VALID,0.323828,
2009-02-14, 01:21:04,VALID,1004.26,VALID,0,VALID,87.6253,VALID,0,VALID,24.307,VALID,354,VALID,0.379297,
2009-02-14, 01:22:04,VALID,1004.25,VALID,0,VALID,87.6329,VALID,0,VALID,24.2894,VALID,354,VALID,0.358594,
2009-02-14, 01:23:04,VALID,1004.23,VALID,0,VALID,87.7474,VALID,0,VALID,24.2486,VALID,354,VALID,0.299609,
2009-02-14, 01:24:04,VALID,1004.24,VALID,0,VALID,87.7703,VALID,0,VALID,24.231,VALID,354,VALID,0.211719,
2009-02-14, 01:25:04,VALID,1004.23,VALID,0,VALID,87.5872,VALID,0,VALID,24.2115,VALID,354,VALID,0.279297,
2009-02-14, 01:26:04,VALID,1004.24,VALID,0,VALID,87.8542,VALID,0,VALID,24.2097,VALID,354,VALID,0.2875,
2009-02-14, 01:27:04,VALID,1004.26,VALID,0,VALID,88.2967,VALID,0,VALID,24.1689,VALID,354,VALID,0.211328,
2009-02-14, 01:28:04,VALID,1004.26,VALID,0,VALID,88.3653,VALID,0,VALID,24.1902,VALID,354,VALID,0.259375,
2009-02-14, 01:29:04,VALID,1004.25,VALID,0,VALID,87.9991,VALID,0,VALID,24.1318,VALID,354,VALID,0.165625,
2009-02-14, 01:30:04,VALID,1004.22,VALID,0,VALID,87.4651,VALID,0,VALID,24.1123,VALID,354,VALID,0,
2009-02-14, 01:31:04,VALID,1004.23,VALID,0,VALID,87.2896,VALID,0.100563,VALID,24.091,VALID,354,VALID,0,
2009-02-14, 01:32:04,VALID,1004.23,VALID,0,VALID,87.5033,VALID,0,VALID,24.1123,VALID,354,VALID,0,
2009-02-14, 01:33:04,VALID,1004.24,VALID,0,VALID,87.8694,VALID,0,VALID,24.1318,VALID,354,VALID,0,
2009-02-14, 01:34:04,VALID,1004.23,VALID,0,VALID,87.9228,VALID,0,VALID,24.1105,VALID,354,VALID,0.0339844,
2009-02-14, 01:35:04,VALID,1004.25,VALID,0,VALID,87.7321,VALID,0,VALID,24.091,VALID,354,VALID,0.310937,
2009-02-14, 01:36:04,VALID,1004.25,VALID,0,VALID,87.2744,VALID,0.100563,VALID,24.091,VALID,354,VALID,0.416406,
2009-02-14, 01:37:04,VALID,1004.26,VALID,0,VALID,86.5954,VALID,0,VALID,24.1123,VALID,355,VALID,0.346484,
2009-02-14, 01:38:04,VALID,1004.28,VALID,0,VALID,87.1828,VALID,0.100563,VALID,24.1494,VALID,355,VALID,0.385938,
2009-02-14, 01:39:04,VALID,1004.27,VALID,0,VALID,86.9464,VALID,0.100563,VALID,24.1902,VALID,355,VALID,0.295312,
2009-02-14, 01:40:04,VALID,1004.25,VALID,0,VALID,86.7175,VALID,0,VALID,24.1689,VALID,355,VALID,0.0339844,
2009-02-14, 01:41:04,VALID,1004.21,VALID,0,VALID,86.0614,VALID,0,VALID,24.1902,VALID,41,VALID,0.555859,
2009-02-14, 01:42:04,VALID,1004.16,VALID,0,VALID,85.4969,VALID,0,VALID,24.2097,VALID,51,VALID,0.340234,
2009-02-14, 01:43:04,VALID,1004.16,VALID,0,VALID,84.8332,VALID,0,VALID,24.2291,VALID,51,VALID,0.385938,
2009-02-14, 01:44:04,VALID,1004.1,VALID,0,VALID,84.8789,VALID,0,VALID,24.2875,VALID,51,VALID,0,
2009-02-14, 01:45:04,VALID,1004.07,VALID,0,VALID,84.6501,VALID,0,VALID,24.2875,VALID,51,VALID,0,
2009-02-14, 01:46:04,VALID,1004.04,VALID,0,VALID,84.4822,VALID,0.100563,VALID,24.3265,VALID,51,VALID,0.003125,
2009-02-14, 01:47:04,VALID,1004.01,VALID,0,VALID,84.5127,VALID,0,VALID,24.3459,VALID,51,VALID,0.0714844,
2009-02-14, 01:48:04,VALID,1003.96,VALID,0,VALID,84.5204,VALID,0,VALID,24.3441,VALID,51,VALID,0.499219,
2009-02-14, 01:49:04,VALID,1003.93,VALID,0,VALID,84.2,VALID,0,VALID,24.3654,VALID,50,VALID,0.615234,
2009-02-14, 01:50:04,VALID,1003.88,VALID,0,VALID,84.6958,VALID,0,VALID,24.4257,VALID,48,VALID,0.439453,
2009-02-14, 01:51:04,VALID,1003.85,VALID,0,VALID,85.1002,VALID,0,VALID,24.383,VALID,38,VALID,0.353516,
2009-02-14, 01:52:04,VALID,1003.85,VALID,0,VALID,85.3748,VALID,0,VALID,24.4043,VALID,38,VALID,0.426953,
2009-02-14, 01:53:04,VALID,1003.83,VALID,0,VALID,85.5503,VALID,0,VALID,24.3654,VALID,38,VALID,0.4125,
2009-02-14, 01:54:04,VALID,1003.8,VALID,0,VALID,85.7791,VALID,0.100563,VALID,24.3246,VALID,38,VALID,0.31875,
2009-02-14, 01:55:04,VALID,1003.81,VALID,0,VALID,85.3367,VALID,0,VALID,24.3478,VALID,38,VALID,0.447266,
2009-02-14, 01:56:04,VALID,1003.78,VALID,0,VALID,85.8783,VALID,0,VALID,24.3265,VALID,38,VALID,0.261328,
2009-02-14, 01:57:04,VALID,1003.77,VALID,0,VALID,85.6342,VALID,0,VALID,24.307,VALID,38,VALID,0.335156,
2009-02-14, 01:58:04,VALID,1003.76,VALID,0,VALID,85.535,VALID,0,VALID,24.2875,VALID,38,VALID,0.193359,
2009-02-14, 01:59:04,VALID,1003.77,VALID,0,VALID,85.6342,VALID,0,VALID,24.2662,VALID,38,VALID,0.253516,
2009-02-14, 02:00:04,VALID,1003.75,VALID,0,VALID,85.3519,VALID,0,VALID,24.2662,VALID,38,VALID,0.0542969,
2009-02-14, 02:01:04,VALID,1003.76,VALID,0,VALID,85.5808,VALID,0,VALID,24.2662,VALID,38,VALID,0.0410156,
2009-02-14, 02:02:04,VALID,1003.76,VALID,0,VALID,85.7105,VALID,0,VALID,24.307,VALID,38,VALID,0.157422,
2009-02-14, 02:03:04,VALID,1003.8,VALID,0,VALID,86.0233,VALID,0,VALID,24.2857,VALID,38,VALID,0.187891,
2009-02-14, 02:04:04,VALID,1003.8,VALID,0,VALID,85.9165,VALID,0,VALID,24.2662,VALID,38,VALID,0.292969,
2009-02-14, 02:05:04,VALID,1003.8,VALID,0,VALID,86.0004,VALID,0,VALID,24.2662,VALID,38,VALID,0.297266,
2009-02-14, 02:06:04,VALID,1003.79,VALID,0,VALID,86.7938,VALID,0,VALID,24.3265,VALID,37,VALID,0.298828,
2009-02-14, 02:07:04,VALID,1003.78,VALID,0,VALID,86.8929,VALID,0,VALID,24.3246,VALID,37,VALID,0.232422,
2009-02-14, 02:08:04,VALID,1003.77,VALID,0,VALID,87.1447,VALID,0,VALID,24.3265,VALID,37,VALID,0.187109,
2009-02-14, 02:09:04,VALID,1003.75,VALID,0,VALID,87.2439,VALID,0.100563,VALID,24.3246,VALID,37,VALID,0.376563,
2009-02-14, 02:10:04,VALID,1003.77,VALID,0,VALID,87.0913,VALID,0,VALID,24.2857,VALID,37,VALID,0.453125,
2009-02-14, 02:11:04,VALID,1003.77,VALID,0,VALID,87.6253,VALID,0.100563,VALID,24.2681,VALID,37,VALID,0.423438,
2009-02-14, 02:12:04,VALID,1003.75,VALID,0,VALID,88.0296,VALID,0,VALID,24.2273,VALID,37,VALID,0.512891,
2009-02-14, 02:13:04,VALID,1003.74,VALID,0,VALID,88.1441,VALID,0,VALID,24.2291,VALID,37,VALID,0.350781,
2009-02-14, 02:14:04,VALID,1003.73,VALID,0,VALID,88.4721,VALID,0.100563,VALID,24.2097,VALID,37,VALID,0.343359,
2009-02-14, 02:15:04,VALID,1003.74,VALID,0,VALID,88.4721,VALID,0,VALID,24.1902,VALID,37,VALID,0.225391,
2009-02-14, 02:16:04,VALID,1003.72,VALID,0,VALID,88.4492,VALID,0,VALID,24.1902,VALID,37,VALID,0.324609,
2009-02-14, 02:17:04,VALID,1003.7,VALID,0,VALID,88.6018,VALID,0,VALID,24.2097,VALID,37,VALID,0.364453,
2009-02-14, 02:18:04,VALID,1003.7,VALID,0,VALID,88.3501,VALID,0,VALID,24.1689,VALID,36,VALID,0.378516,
2009-02-14, 02:19:04,VALID,1003.71,VALID,0,VALID,88.0678,VALID,0,VALID,24.1902,VALID,26,VALID,0.389453,
2009-02-14, 02:20:04,VALID,1003.72,VALID,0,VALID,87.961,VALID,0,VALID,24.1494,VALID,19,VALID,0.396094,
2009-02-14, 02:21:04,VALID,1003.7,VALID,0,VALID,87.9991,VALID,0.100563,VALID,24.1689,VALID,15,VALID,0,
2009-02-14, 02:22:04,VALID,1003.69,VALID,0,VALID,88.228,VALID,0,VALID,24.2291,VALID,15,VALID,0,
2009-02-14, 02:23:04,VALID,1003.69,VALID,0,VALID,87.9,VALID,0.100563,VALID,24.2078,VALID,15,VALID,0,
2009-02-14, 02:24:04,VALID,1003.71,VALID,0,VALID,87.3736,VALID,0,VALID,24.2097,VALID,15,VALID,0,
2009-02-14, 02:25:04,VALID,1003.69,VALID,0,VALID,87.8084,VALID,0,VALID,24.2291,VALID,15,VALID,0,
2009-02-14, 02:26:04,VALID,1003.67,VALID,0,VALID,87.7932,VALID,0.100563,VALID,24.2291,VALID,15,VALID,0,
2009-02-14, 02:27:04,VALID,1003.69,VALID,0,VALID,87.4956,VALID,0.100563,VALID,24.2097,VALID,15,VALID,0,
2009-02-14, 02:28:04,VALID,1003.69,VALID,0,VALID,87.4117,VALID,0,VALID,24.2097,VALID,14,VALID,0,
2009-02-14, 02:29:04,VALID,1003.68,VALID,0,VALID,87.2057,VALID,0.100563,VALID,24.2097,VALID,11,VALID,0.259766,
2009-02-14, 02:30:04,VALID,1003.68,VALID,0,VALID,86.9311,VALID,0,VALID,24.2504,VALID,12,VALID,0.046875,
2009-02-14, 02:31:04,VALID,1003.67,VALID,0,VALID,86.9769,VALID,0,VALID,24.2078,VALID,12,VALID,0.0164062,
2009-02-14, 02:32:04,VALID,1003.72,VALID,0,VALID,86.8853,VALID,0.100563,VALID,24.2662,VALID,12,VALID,0.0121094,
2009-02-14, 02:33:04,VALID,1003.69,VALID,0,VALID,86.7251,VALID,0.100563,VALID,24.2662,VALID,11,VALID,0,
2009-02-14, 02:34:04,VALID,1003.73,VALID,0,VALID,86.2216,VALID,0,VALID,24.307,VALID,11,VALID,0,
2009-02-14, 02:35:04,VALID,1003.74,VALID,0,VALID,85.9546,VALID,0,VALID,24.3459,VALID,12,VALID,0.0425781,
2009-02-14, 02:36:04,VALID,1003.76,VALID,0,VALID,86.0538,VALID,0.100563,VALID,24.4043,VALID,11,VALID,0.378125,
2009-02-14, 02:37:04,VALID,1003.73,VALID,0,VALID,85.7257,VALID,0,VALID,24.383,VALID,11,VALID,0.412891,
2009-02-14, 02:38:04,VALID,1003.73,VALID,0,VALID,86.2674,VALID,0,VALID,24.422,VALID,360,VALID,0.407031,
2009-02-14, 02:39:04,VALID,1003.71,VALID,0,VALID,86.1224,VALID,0,VALID,24.4433,VALID,360,VALID,0.536328,
2009-02-14, 02:40:04,VALID,1003.73,VALID,0,VALID,86.2674,VALID,0.100563,VALID,24.4238,VALID,359,VALID,0.635156,
2009-02-14, 02:41:04,VALID,1003.7,VALID,0,VALID,86.3666,VALID,0.100563,VALID,24.3849,VALID,358,VALID,0.681641,
2009-02-14, 02:42:04,VALID,1003.73,VALID,0,VALID,86.5725,VALID,0,VALID,24.3849,VALID,354,VALID,0.634766,
2009-02-14, 02:43:04,VALID,1003.73,VALID,0,VALID,86.4276,VALID,0,VALID,24.3654,VALID,346,VALID,0.783984,
2009-02-14, 02:44:04,VALID,1003.72,VALID,0,VALID,86.5802,VALID,0,VALID,24.3459,VALID,355,VALID,0.749609,
2009-02-14, 02:45:04,VALID,1003.74,VALID,0,VALID,86.2064,VALID,0,VALID,24.2857,VALID,352,VALID,0.863281,
2009-02-14, 02:46:04,VALID,1003.72,VALID,0,VALID,85.9088,VALID,0,VALID,24.307,VALID,351,VALID,0.842578,
2009-02-14, 02:47:04,VALID,1003.7,VALID,0,VALID,86.1072,VALID,0,VALID,24.3478,VALID,353,VALID,0.658594,
2009-02-14, 02:48:04,VALID,1003.75,VALID,0,VALID,85.5732,VALID,0,VALID,24.3265,VALID,351,VALID,0.658594,
2009-02-14, 02:49:04,VALID,1003.74,VALID,0,VALID,85.596,VALID,0,VALID,24.3265,VALID,347,VALID,0.433594,
2009-02-14, 02:50:04,VALID,1003.76,VALID,0,VALID,85.7715,VALID,0,VALID,24.3265,VALID,348,VALID,0.444922,
2009-02-14, 02:51:04,VALID,1003.76,VALID,0,VALID,86.0461,VALID,0,VALID,24.3459,VALID,348,VALID,0.274609,
2009-02-14, 02:52:04,VALID,1003.77,VALID,0,VALID,86.5344,VALID,0,VALID,24.3459,VALID,348,VALID,0.316797,
2009-02-14, 02:53:04,VALID,1003.8,VALID,0,VALID,86.5115,VALID,0,VALID,24.3052,VALID,348,VALID,0.326562,
2009-02-14, 02:54:04,VALID,1003.8,VALID,0,VALID,86.7785,VALID,0.100563,VALID,24.307,VALID,348,VALID,0.348437,
2009-02-14, 02:55:04,VALID,1003.78,VALID,0,VALID,86.9387,VALID,0,VALID,24.2468,VALID,348,VALID,0.390625,
2009-02-14, 02:56:04,VALID,1003.79,VALID,0,VALID,86.8319,VALID,0,VALID,24.2486,VALID,349,VALID,0.480859,
2009-02-14, 02:57:04,VALID,1003.77,VALID,0,VALID,86.8243,VALID,0,VALID,24.2291,VALID,349,VALID,0.364062,
2009-02-14, 02:58:04,VALID,1003.76,VALID,0,VALID,86.8701,VALID,0.100563,VALID,24.2097,VALID,349,VALID,0.286719,
2009-02-14, 02:59:04,VALID,1003.77,VALID,0,VALID,86.7938,VALID,0,VALID,24.1884,VALID,350,VALID,0.323828,
2009-02-14, 03:00:04,VALID,1003.78,VALID,0,VALID,87.0913,VALID,0,VALID,24.2291,VALID,350,VALID,0.339453,
2009-02-14, 03:01:04,VALID,1003.78,VALID,0,VALID,87.6024,VALID,0,VALID,24.2291,VALID,350,VALID,0.341016,
2009-02-14, 03:02:04,VALID,1003.78,VALID,0,VALID,87.6482,VALID,0,VALID,24.2291,VALID,349,VALID,0.025,
2009-02-14, 03:03:04,VALID,1003.77,VALID,0,VALID,87.4956,VALID,0,VALID,24.2504,VALID,349,VALID,0,
2009-02-14, 03:04:04,VALID,1003.75,VALID,0,VALID,87.4956,VALID,0,VALID,24.2291,VALID,350,VALID,0.317578,
2009-02-14, 03:05:04,VALID,1003.77,VALID,0,VALID,87.5414,VALID,0,VALID,24.2097,VALID,350,VALID,0.340234,
2009-02-14, 03:06:04,VALID,1003.76,VALID,0,VALID,87.7398,VALID,0,VALID,24.2097,VALID,349,VALID,0.151172,
2009-02-14, 03:07:04,VALID,1003.76,VALID,0,VALID,87.4651,VALID,0,VALID,24.2097,VALID,350,VALID,0.319922,
2009-02-14, 03:08:04,VALID,1003.74,VALID,0,VALID,86.8853,VALID,0,VALID,24.1902,VALID,349,VALID,0.112109,
2009-02-14, 03:09:04,VALID,1003.74,VALID,0,VALID,87.3354,VALID,0,VALID,24.2097,VALID,349,VALID,0,
2009-02-14, 03:10:04,VALID,1003.7,VALID,0,VALID,87.4727,VALID,0,VALID,24.2097,VALID,349,VALID,0.0652344,
2009-02-14, 03:11:04,VALID,1003.7,VALID,0,VALID,87.7626,VALID,0,VALID,24.2078,VALID,349,VALID,0.0777344,
2009-02-14, 03:12:04,VALID,1003.7,VALID,0,VALID,87.3049,VALID,0,VALID,24.2504,VALID,349,VALID,0,
2009-02-14, 03:13:04,VALID,1003.71,VALID,0,VALID,87.5414,VALID,0,VALID,24.2273,VALID,349,VALID,0.263281,
2009-02-14, 03:14:04,VALID,1003.79,VALID,0,VALID,87.2439,VALID,0.100563,VALID,24.2273,VALID,305,VALID,0.206641,
2009-02-14, 03:15:04,VALID,1003.81,VALID,0,VALID,85.6418,VALID,0,VALID,24.2662,VALID,274,VALID,0.846094,
2009-02-14, 03:16:04,VALID,1003.82,VALID,0,VALID,83.7727,VALID,0,VALID,24.3246,VALID,307,VALID,0.598437,
2009-02-14, 03:17:04,VALID,1003.83,VALID,0,VALID,82.9564,VALID,0,VALID,24.4414,VALID,285,VALID,1.03203,
2009-02-14, 03:18:04,VALID,1003.85,VALID,0,VALID,83.5515,VALID,0.100563,VALID,24.5777,VALID,307,VALID,0.825391,
2009-02-14, 03:19:04,VALID,1003.85,VALID,0,VALID,84.383,VALID,0,VALID,24.6945,VALID,289,VALID,1.3082,
2009-02-14, 03:20:04,VALID,1003.87,VALID,0,VALID,84.3144,VALID,0.100563,VALID,24.8132,VALID,295,VALID,0.842188,
2009-02-14, 03:21:04,VALID,1003.89,VALID,0,VALID,84.7187,VALID,0,VALID,24.8716,VALID,286,VALID,0.391016,
2009-02-14, 03:22:04,VALID,1003.89,VALID,0,VALID,84.0855,VALID,0,VALID,24.8892,VALID,283,VALID,1.23945,
2009-02-14, 03:23:04,VALID,1003.9,VALID,0,VALID,84.6424,VALID,0,VALID,24.9495,VALID,280,VALID,1.59961,
2009-02-14, 03:24:04,VALID,1003.92,VALID,0,VALID,84.9705,VALID,0,VALID,24.9671,VALID,242,VALID,0.852734,
2009-02-14, 03:25:04,VALID,1003.92,VALID,0,VALID,85.3443,VALID,0,VALID,24.9866,VALID,295,VALID,1.22305,
2009-02-14, 03:26:04,VALID,1003.91,VALID,0,VALID,85.7486,VALID,0,VALID,25.0274,VALID,279,VALID,0.553906,
2009-02-14, 03:27:04,VALID,1003.87,VALID,0,VALID,86.1148,VALID,0,VALID,25.0255,VALID,302,VALID,0.984766,
2009-02-14, 03:28:04,VALID,1003.85,VALID,0,VALID,87.015,VALID,0,VALID,25.045,VALID,292,VALID,0.726172,
2009-02-14, 03:29:04,VALID,1003.82,VALID,0,VALID,87.9076,VALID,0,VALID,25.045,VALID,302,VALID,1.55391,
2009-02-14, 03:30:04,VALID,1003.82,VALID,0,VALID,88.1517,VALID,0,VALID,25.0255,VALID,298,VALID,1.09922,
2009-02-14, 03:31:04,VALID,1003.79,VALID,0,VALID,88.3958,VALID,0.100563,VALID,25.0488,VALID,292,VALID,0.919922,
2009-02-14, 03:32:04,VALID,1003.83,VALID,0,VALID,88.7162,VALID,0,VALID,25.0079,VALID,288,VALID,0.952344,
2009-02-14, 03:33:04,VALID,1003.81,VALID,0,VALID,88.8078,VALID,0,VALID,25.0079,VALID,275,VALID,0.575781,
2009-02-14, 03:34:04,VALID,1003.79,VALID,0,VALID,88.8078,VALID,0,VALID,24.969,VALID,323,VALID,0.407031,
2009-02-14, 03:35:04,VALID,1003.83,VALID,0,VALID,88.8993,VALID,0,VALID,24.969,VALID,293,VALID,1.16133,
2009-02-14, 03:36:04,VALID,1003.85,VALID,0,VALID,88.8841,VALID,0,VALID,24.9087,VALID,298,VALID,1.42461,
2009-02-14, 03:37:04,VALID,1003.79,VALID,0,VALID,89.0138,VALID,0,VALID,24.93,VALID,275,VALID,0.759766,
2009-02-14, 03:38:04,VALID,1003.83,VALID,0,VALID,88.6705,VALID,0,VALID,24.9106,VALID,305,VALID,1.83984,
2009-02-14, 03:39:04,VALID,1003.84,VALID,0,VALID,88.6094,VALID,0,VALID,24.8697,VALID,303,VALID,1.85195,
2009-02-14, 03:40:04,VALID,1003.83,VALID,0,VALID,88.5713,VALID,0,VALID,24.8113,VALID,293,VALID,2.24531,
2009-02-14, 03:41:04,VALID,1003.86,VALID,0,VALID,88.762,VALID,0,VALID,24.8132,VALID,274,VALID,2.45625,
2009-02-14, 03:42:04,VALID,1003.8,VALID,0,VALID,88.8841,VALID,0,VALID,24.7529,VALID,289,VALID,1.92891,